GW0575 Weather Reports


time (UTC)temp
C
wind
direction
speed
KPH
gust
KPH
rain 1hr
cm
rain 24hr
cm
rain mn
cm
humidity
%
barometer
mb
20260503054516 9 305 4.8 8.0 0.00 0.03 0.00 66 1008.9
20260503053519 9 332 4.8 8.0 0.00 0.03 0.00 67 1008.9
20260503052600 10 320 12.9 16.1 0.00 0.03 0.00 67 1008.7
20260503051516 10 334 6.4 11.3 0.00 0.03 0.00 66 1008.8
20260503050517 10 340 4.8 8.0 0.00 0.03 0.00 69 1008.8
20260503045520 9 293 4.8 8.0 0.00 0.03 0.00 78 1009.1
20260503044520 9 320 4.8 8.0 0.00 0.03 0.00 88 1009.2
20260503043520 9 299 0.0 0.0 0.00 0.03 0.00 90 1009.3
20260503042517 9 0.0 0.0 0.00 0.03 0.00 90 1009.4
20260503041517 9 278 1.6 4.8 0.00 0.03 0.00 90 1009.6
20260503040517 9 233 1.6 3.2 0.00 0.03 0.00 90 1009.8
20260503035521 9 0.0 0.0 0.00 0.03 0.03 90 1009.8
20260503034518 9 11 1.6 1.6 0.00 0.03 0.03 90 1009.7
20260503033518 9 316 1.6 3.2 0.00 0.03 0.03 90 1009.7
20260503032518 9 296 1.6 4.8 0.00 0.03 0.03 90 1009.8
20260503031518 9 319 3.2 4.8 0.00 0.03 0.03 90 1009.9
20260503030518 9 236 1.6 3.2 0.00 0.03 0.03 90 1009.9
20260503025519 9 305 3.2 3.2 0.00 0.03 0.03 89 1010.1
20260503024519 9 307 1.6 1.6 0.00 0.03 0.03 89 1010.1
20260503023519 9 290 0.0 1.6 0.00 0.03 0.03 88 1010.1
20260503022519 9 0.0 0.0 0.00 0.03 0.03 88 1010.0
20260503021639 9 0.0 0.0 0.00 0.03 0.03 87 1009.9
20260503020516 9 0.0 0.0 0.00 0.03 0.03 87 1010.2
20260503015536 9 0.0 0.0 0.00 0.03 0.03 86 1010.4
20260503014517 10 4 0.0 1.6 0.00 0.03 0.03 85 1010.4
20260503013520 10 228 0.0 1.6 0.00 0.03 0.03 84 1010.4
20260503012517 10 193 0.0 3.2 0.00 0.03 0.03 84 1010.3
20260503011537 10 213 0.0 3.2 0.00 0.03 0.03 84 1010.3
20260503010517 10 179 1.6 4.8 0.00 0.03 0.03 84 1010.2
20260503005517 10 202 1.6 3.2 0.00 0.03 0.03 84 1010.2
20260503004520 10 171 1.6 3.2 0.00 0.03 0.03 84 1010.1
20260503003518 10 165 3.2 6.4 0.00 0.03 0.03 84 1010.0
20260503002518 10 172 3.2 8.0 0.00 0.03 0.03 84 1009.9
20260503001518 10 170 3.2 3.2 0.00 0.03 0.03 84 1010.0
20260503000518 10 189 1.6 3.2 0.00 0.03 0.03 83 1010.1
20260502235518 10 189 1.6 3.2 0.00 0.03 0.03 83 1010.0
20260502234538 10 226 1.6 4.8 0.00 0.03 0.03 82 1010.2
20260502233518 10 194 1.6 1.6 0.00 0.03 0.03 82 1010.1
20260502232540 10 162 3.2 4.8 0.00 0.03 0.03 82 1009.9
20260502231516 10 149 3.2 4.8 0.00 0.03 0.03 81 1010.0
20260502230516 10 155 3.2 4.8 0.00 0.03 0.03 82 1010.1
20260502225519 10 167 1.6 3.2 0.00 0.03 0.03 81 1010.1
20260502224600 10 179 1.6 3.2 0.00 0.03 0.03 81 1010.0
20260502223520 10 223 1.6 4.8 0.00 0.03 0.03 80 1009.9
20260502222517 10 144 3.2 4.8 0.00 0.03 0.03 81 1009.9
20260502221517 10 234 1.6 6.4 0.00 0.03 0.03 80 1010.0
20260502220518 11 230 6.4 8.0 0.00 0.03 0.03 78 1009.9
20260502215517 11 196 4.8 6.4 0.00 0.03 0.03 78 1009.9
20260502214518 11 166 4.8 9.7 0.00 0.03 0.03 78 1010.0
20260502213518 11 255 3.2 6.4 0.00 0.03 0.03 76 1009.8
20260502212518 11 228 4.8 9.7 0.00 0.03 0.03 75 1009.6
20260502211518 11 233 3.2 4.8 0.00 0.03 0.03 75 1009.7
20260502210518 11 172 6.4 11.3 0.00 0.03 0.03 75 1009.5
20260502205518 11 187 6.4 11.3 0.00 0.03 0.03 76 1009.6
20260502204518 11 202 4.8 6.4 0.00 0.03 0.03 78 1009.7
20260502203518 11 190 3.2 4.8 0.00 0.03 0.03 78 1009.8
20260502202520 11 185 4.8 8.0 0.00 0.03 0.03 78 1009.7
20260502201516 11 206 6.4 9.7 0.00 0.03 0.03 77 1009.8
20260502200516 11 193 8.0 12.9 0.03 0.03 0.03 76 1010.0
20260502195519 11 214 4.8 11.3 0.03 0.03 0.03 76 1010.2
20260502194520 11 213 6.4 9.7 0.03 0.03 0.03 75 1010.2
20260502193540 11 203 3.2 6.4 0.03 0.03 0.03 74 1010.5
20260502192517 11 203 9.7 12.9 0.03 0.03 0.03 73 1011.0
20260502191517 11 154 12.9 17.7 0.03 0.03 0.03 70 1010.8
20260502190517 11 198 14.5 20.9 0.00 0.00 0.00 64 1010.6
20260502185540 12 181 14.5 22.5 0.00 0.00 0.00 61 1010.9
20260502184538 12 173 6.4 11.3 0.00 0.00 0.00 60 1010.1
20260502183518 12 199 6.4 11.3 0.00 0.00 0.00 65 1010.2
20260502181518 12 186 8.0 11.3 0.00 0.00 0.00 64 1010.3
20260502180538 12 169 8.0 11.3 0.00 0.00 0.00 66 1010.8
20260502170517 13 178 4.8 8.0 0.00 0.00 0.00 50 1010.6
20260502163520 14 162 14.5 19.3 0.00 0.00 0.00 51 1009.1
20260502162517 13 181 8.0 11.3 0.00 0.00 0.00 53 1009.9
20260502161517 13 180 8.0 12.9 0.00 0.00 0.00 55 1010.3
20260502160517 13 214 4.8 8.0 0.00 0.00 0.00 58 1010.2
20260502151518 13 174 3.2 4.8 0.00 0.00 0.00 65 1010.8
20260502150518 13 156 9.7 12.9 0.00 0.00 0.00 65 1011.5
20260502130517 11 260 4.8 9.7 0.00 0.00 0.00 76 1011.3
20260502123518 11 259 4.8 11.3 0.00 0.00 0.00 75 1011.7
20260502122518 10 186 4.8 9.7 0.00 0.00 0.00 75 1011.4
20260502121538 10 260 8.0 12.9 0.00 0.00 0.00 75 1010.9
20260502120518 10 158 3.2 4.8 0.00 0.00 0.00 76 1011.1
20260502115518 10 150 4.8 8.0 0.00 0.00 0.00 78 1010.6
20260502114539 9 135 1.6 6.4 0.00 0.00 0.00 78 1011.4
20260502113519 8 158 6.4 11.3 0.00 0.00 0.00 78 1011.2
20260502112519 8 157 6.4 9.7 0.00 0.00 0.00 78 1011.4
20260502111518 8 220 1.6 3.2 0.00 0.00 0.00 79 1011.5
20260502110516 8 177 1.6 4.8 0.00 0.00 0.00 80 1011.3
20260502105519 8 251 3.2 4.8 0.00 0.00 0.00 80 1011.3
20260502104519 8 136 1.6 3.2 0.00 0.00 0.00 81 1011.2
20260502103519 7 160 3.2 4.8 0.00 0.00 0.00 82 1011.4
20260502102537 7 191 3.2 3.2 0.00 0.00 0.00 85 1011.6
20260502101517 6 185 3.2 6.4 0.00 0.00 0.00 86 1011.8
20260502100517 6 208 0.0 3.2 0.00 0.00 0.00 87 1011.7
20260502091517 6 83 0.0 1.6 0.00 0.00 0.00 89 1011.5
20260502090518 6 339 0.0 0.0 0.00 0.00 0.00 89 1011.6
20260502070516 6 260 0.0 3.2 0.00 0.00 0.00 82 1012.0
20260502065517 6 275 1.6 3.2 0.00 0.00 0.00 82 1011.9
20260502064517 6 42 0.0 1.6 0.00 0.00 0.00 83 1011.7
20260502063540 6 0.0 0.0 0.00 0.00 0.00 83 1011.8
20260502062518 6 149 0.0 0.0 0.00 0.00 0.00 81 1011.8
20260502061517 5 212 0.0 1.6 0.00 0.00 0.00 80 1011.9
20260502060517 6 121 0.0 1.6 0.00 0.00 0.00 79 1011.9
20260502055519 6 185 0.0 1.6 0.00 0.00 0.00 79 1012.3